Weather reports worldwide

Advertisment
Mont-De-Marsan, France (7607): temperature & dewpoint: 19.08.2019 08:00:00 - 25.08.2019 08:00:00 (CEST)Mont-De-Marsan, France (7607): temperature 5cm: 19.08.2019 08:00:00 - 25.08.2019 08:00:00 (CEST)Mont-De-Marsan, France (7607): temperature -20cm & temperature -100cm: 19.08.2019 08:00:00 - 25.08.2019 08:00:00 (CEST)Mont-De-Marsan, France (7607): wind speed & gusts: 19.08.2019 08:00:00 - 25.08.2019 08:00:00 (CEST)Mont-De-Marsan, France (7607): wind direction: 19.08.2019 08:00:00 - 25.08.2019 08:00:00 (CEST)Mont-De-Marsan, France (7607): reduced air pressure: 19.08.2019 08:00:00 - 25.08.2019 08:00:00 (CEST)Mont-De-Marsan, France (7607): visibility: 19.08.2019 08:00:00 - 25.08.2019 08:00:00 (CEST)Mont-De-Marsan, France (7607): sunshine duration: 19.08.2019 08:00:00 - 25.08.2019 08:00:00 (CEST)Mont-De-Marsan, France (7607): precipitation: 19.08.2019 08:00:00 - 25.08.2019 08:00:00 (CEST)
Date & Time tt [°C] td [°C] tt 5cm [°C] tt -20cm [°C] tt -100cm [°C] ff [km/h] ff [kn] fx [km/h] fx [kn] dd ppp [hPa] vv [km] sd [min] rr [mm]
25.08.2019 08:00:00 - - - - - - - - - - - - - -
25.08.2019 07:00:00 20,5 18,3 20,0 25,0 21,9 4 2 6 3 WSW 1018,7 17 0 0,0
25.08.2019 06:00:00 20,6 18,0 20,1 25,2 21,9 0 0 6 3 N 1018,7 22 0 0,0
25.08.2019 05:00:00 20,5 18,1 20,0 25,3 21,9 3 2 7 4 W 1018,8 20 0 0,0
25.08.2019 04:00:00 20,2 18,1 19,9 25,5 21,9 4 2 9 5 NNW 1018,8 16 0 0,0
25.08.2019 03:00:00 20,3 18,6 20,0 25,7 21,9 8 4 13 7 W 1018,8 18 0 0,0
25.08.2019 02:00:00 20,6 18,7 19,3 25,9 21,9 9 5 16 8 W 1019,0 19 0 0,0
25.08.2019 01:00:00 20,7 18,6 20,3 26,1 21,9 14 7 21 11 W 1018,9 20 0 0,0
25.08.2019 00:00:00 21,4 19,1 20,1 26,3 21,9 13 7 23 12 WSW 1018,8 25 0 0,0
24.08.2019 23:00:00 21,1 19,2 19,6 26,3 21,8 9 5 23 13 W 1018,4 20 0 0,0
24.08.2019 22:00:00 21,8 19,4 21,0 26,3 21,8 19 11 30 16 W 1018,1 25 0 0,0
24.08.2019 21:00:00 24,8 19,2 23,6 26,3 21,8 16 9 32 17 W 1017,0 27 26 0,0
24.08.2019 20:00:00 29,4 15,9 28,8 26,0 21,7 22 12 30 16 WNW 1016,2 37 60 0,0
24.08.2019 19:00:00 33,0 14,6 34,5 25,6 21,7 14 7 22 12 WNW 1015,7 60 60 0,0
24.08.2019 18:00:00 34,3 13,7 38,0 25,1 21,7 13 7 28 15 NW 1015,8 60 60 0,0
24.08.2019 17:00:00 34,2 15,6 39,4 24,6 21,7 14 8 22 12 SW 1015,9 60 60 0,0
24.08.2019 16:00:00 33,6 15,1 39,5 24,1 21,7 10 6 22 12 WSW 1016,2 60 60 0,0
24.08.2019 15:00:00 33,3 15,3 38,6 23,5 21,7 9 5 23 12 SW 1016,5 53 60 0,0
24.08.2019 14:00:00 32,6 13,8 37,4 23,1 21,7 13 7 22 12 SW 1016,7 60 60 0,0
24.08.2019 13:00:00 31,1 15,9 35,0 22,9 21,7 5 3 10 6 WSW 1017,0 60 60 0,0
24.08.2019 12:00:00 28,8 17,7 32,7 22,7 21,7 4 2 11 6 SSW 1017,3 60 60 0,0
24.08.2019 11:00:00 25,3 18,0 27,1 22,8 21,7 4 2 10 5 E 1017,4 60 60 0,0
24.08.2019 10:00:00 20,8 16,8 20,5 23,0 21,7 6 3 9 5 E 1017,4 60 60 0,0
24.08.2019 09:00:00 16,7 15,4 14,3 23,2 21,7 6 4 9 5 E 1017,2 32 60 0,0
24.08.2019 08:00:00 13,9 13,6 10,8 23,5 21,7 8 4 9 5 E 1017,1 19 22 0,0
24.08.2019 07:00:00 12,9 12,4 10,3 23,8 21,6 7 4 9 5 ENE 1016,9 18 0 0,2
24.08.2019 06:00:00 13,2 12,7 11,1 24,0 21,7 8 4 9 5 E 1016,8 23 0 0,0
24.08.2019 05:00:00 14,2 13,9 10,0 24,3 21,7 3 2 9 5 NE 1017,0 19 0 0,0
24.08.2019 04:00:00 15,5 15,2 10,1 24,6 21,7 3 1 7 4 SE 1017,2 0,5 0 0,0
24.08.2019 03:00:00 15,4 14,8 12,6 24,9 21,7 9 5 11 6 E 1016,8 18 0 0,0
24.08.2019 02:00:00 16,8 16,5 12,0 25,1 21,7 5 3 10 5 E 1017,3 13 0 0,0
24.08.2019 01:00:00 17,0 16,0 13,1 25,3 21,7 4 2 8 4 ENE 1017,4 21 0 0,0
24.08.2019 00:00:00 17,4 15,7 13,6 25,5 21,7 6 3 7 4 ENE 1017,4 35 0 0,0
23.08.2019 23:00:00 19,8 17,4 15,0 25,7 21,7 5 3 6 3 ENE 1017,3 42 0 0,0
23.08.2019 22:00:00 21,6 17,0 15,7 25,7 21,7 0 0 4 2 N 1017,2 57 0 0,0
23.08.2019 21:00:00 25,1 16,8 19,5 25,6 21,8 0 0 7 4 N 1016,9 60 28 0,0
23.08.2019 20:00:00 29,6 16,1 29,9 25,3 21,8 6 3 15 8 E 1016,9 60 60 0,0
23.08.2019 19:00:00 30,4 15,3 32,1 25,0 21,7 7 4 16 9 E 1017,1 60 55 0,0
23.08.2019 18:00:00 30,2 16,2 32,2 24,5 21,7 9 5 24 13 E 1017,5 60 39 0,0
23.08.2019 17:00:00 31,3 14,9 37,2 23,9 21,7 13 7 23 12 ESE 1017,8 60 60 0,0
23.08.2019 16:00:00 31,1 15,5 38,0 23,3 21,7 12 6 24 13 E 1018,1 20 60 0,0
23.08.2019 15:00:00 30,0 14,9 36,6 22,8 21,7 10 5 22 12 ESE 1018,8 18 60 0,0
23.08.2019 14:00:00 28,7 15,2 34,0 22,3 21,7 9 5 24 13 E 1019,2 19 60 0,0
23.08.2019 13:00:00 27,5 13,4 31,5 22,0 21,7 11 6 21 11 SE 1019,7 59 60 0,0
23.08.2019 12:00:00 25,8 14,6 29,6 21,9 21,7 10 6 21 11 E 1020,1 60 60 0,0
23.08.2019 11:00:00 23,3 15,1 25,5 22,1 21,7 9 5 14 7 ESE 1020,4 60 60 0,0
23.08.2019 10:00:00 18,7 14,8 19,4 22,2 21,7 6 3 11 6 E 1020,8 60 60 0,0
23.08.2019 09:00:00 14,7 13,1 12,7 22,4 21,7 4 2 8 4 ENE 1021,1 52 60 0,0
23.08.2019 08:00:00 11,9 11,6 8,0 22,7 21,7 4 2 5 3 ENE 1020,8 50 23 0,0
23.08.2019 07:00:00 10,3 9,7 8,0 23,0 21,7 5 3 9 5 E 1020,8 38 0 0,0
23.08.2019 06:00:00 10,8 10,2 8,8 23,3 21,7 6 4 10 6 ENE 1020,7 42 0 0,0
23.08.2019 05:00:00 11,3 10,7 9,4 23,6 21,7 8 4 10 5 ENE 1020,8 46 0 0,0
23.08.2019 04:00:00 12,3 11,5 8,7 23,9 21,7 4 2 5 3 E 1021,2 59 0 0,0
23.08.2019 03:00:00 12,4 11,8 9,3 24,2 21,7 4 2 7 4 E 1021,3 48 0 0,0
23.08.2019 02:00:00 13,0 11,6 9,3 24,4 21,7 3 2 6 3 ENE 1021,4 56 0 0,0
23.08.2019 01:00:00 14,3 12,8 10,6 24,7 21,7 4 2 8 4 ENE 1021,8 58 0 0,0
23.08.2019 00:00:00 15,6 13,6 11,4 24,9 21,7 4 2 7 4 E 1021,9 58 0 0,0
22.08.2019 23:00:00 17,8 13,7 12,4 25,1 21,8 0 0 4 2 N 1021,9 59 0 0,0
22.08.2019 22:00:00 19,1 12,8 14,1 25,1 21,8 4 2 5 3 ENE 1021,7 60 0 0,0
22.08.2019 21:00:00 23,8 12,7 18,2 25,0 21,8 0 0 10 6 N 1021,0 60 29 0,0
22.08.2019 20:00:00 26,9 11,8 27,7 24,8 21,9 9 5 16 9 ESE 1020,7 60 60 0,0
22.08.2019 19:00:00 28,7 10,8 32,3 24,4 22,0 8 4 15 8 E 1020,7 60 60 0,0
22.08.2019 18:00:00 29,3 9,9 36,1 23,9 22,0 6 3 21 11 N 1020,9 40 60 0,0
22.08.2019 17:00:00 29,5 8,0 35,2 23,3 22,0 11 6 23 13 NE 1021,3 24 60 0,0
22.08.2019 16:00:00 29,1 9,8 35,9 22,7 21,8 10 5 26 14 N 1021,8 18 60 0,0
22.08.2019 15:00:00 28,4 9,1 34,2 22,2 21,8 10 6 28 15 NNW 1022,3 12 60 0,0
22.08.2019 14:00:00 27,7 7,5 31,1 21,7 21,8 13 7 30 16 N 1022,5 9 60 0,0
22.08.2019 13:00:00 25,5 13,0 28,9 21,4 21,8 8 4 19 10 NW 1022,9 8 60 0,0
22.08.2019 12:00:00 23,0 14,3 25,5 21,3 21,8 9 5 16 9 W 1023,4 7 60 0,0
22.08.2019 11:00:00 18,7 14,8 17,7 21,4 21,8 8 4 14 8 WSW 1023,8 11 54 0,0
22.08.2019 10:00:00 14,3 14,1 15,1 21,5 21,8 5 3 9 5 W 1024,0 0,2 15 0,0
22.08.2019 09:00:00 12,8 12,2 9,9 21,8 21,8 3 2 5 3 NW 1023,7 14 52 0,0
22.08.2019 08:00:00 9,0 8,2 5,8 22,1 21,8 0 0 3 2 N 1023,3 55 20 0,0
22.08.2019 07:00:00 9,1 8,5 5,6 22,4 21,8 0 0 3 2 N 1022,8 50 0 0,0
22.08.2019 06:00:00 9,2 8,0 6,1 22,7 21,8 2 1 3 2 NE 1022,4 59 0 0,0
22.08.2019 05:00:00 10,8 9,9 6,6 23,0 21,8 0 0 3 2 N 1022,2 57 0 0,0
22.08.2019 04:00:00 11,6 10,7 6,9 23,3 21,9 0 0 5 3 N 1022,2 60 0 0,0
22.08.2019 03:00:00 12,6 11,2 7,9 23,6 21,8 2 1 5 3 W 1022,1 57 0 0,0
22.08.2019 02:00:00 13,2 11,1 8,9 23,9 21,9 3 2 10 6 WSW 1022,7 58 0 0,0
22.08.2019 01:00:00 13,9 11,1 9,2 24,2 21,9 0 0 3 2 N 1022,9 60 0 0,0
22.08.2019 00:00:00 15,0 11,2 10,3 24,4 21,9 0 0 7 4 N 1022,8 60 0 0,0
21.08.2019 23:00:00 17,0 11,5 11,4 24,6 21,9 0 0 7 4 N 1022,5 60 0 0,0
21.08.2019 22:00:00 18,6 11,4 12,8 24,6 21,9 7 4 9 5 NNE 1022,3 60 0 0,0
21.08.2019 21:00:00 22,1 9,9 17,0 24,6 21,9 6 3 15 8 NNE 1021,6 60 31 0,0
21.08.2019 20:00:00 25,7 9,9 27,2 24,4 21,9 8 4 14 8 NE 1020,8 60 60 0,0
21.08.2019 19:00:00 27,1 9,0 30,8 24,1 21,9 11 6 19 10 NNE 1020,6 60 60 0,0
21.08.2019 18:00:00 27,4 8,8 33,3 23,6 22,0 6 3 19 11 NE 1020,5 60 60 0,0
21.08.2019 17:00:00 27,4 8,8 33,8 23,1 21,9 11 6 22 12 ENE 1020,8 60 60 0,0
21.08.2019 16:00:00 27,1 9,0 34,3 22,5 21,9 10 5 24 13 ENE 1021,3 57 60 0,0
21.08.2019 15:00:00 26,5 9,8 33,2 21,9 22,0 11 6 23 12 ENE 1021,7 58 60 0,0
21.08.2019 14:00:00 25,2 10,6 29,7 21,5 22,0 11 6 23 12 NE 1022,2 52 50 0,0
21.08.2019 13:00:00 24,8 12,1 29,9 21,2 22,0 12 7 23 12 NE 1022,6 49 60 0,0
21.08.2019 12:00:00 23,5 12,5 28,2 21,0 22,0 12 6 18 10 ENE 1023,4 54 60 0,0
21.08.2019 11:00:00 21,5 15,1 23,4 21,0 22,0 8 4 14 8 E 1023,7 57 60 0,0
21.08.2019 10:00:00 16,9 14,7 15,5 21,2 22,0 8 4 11 6 ENE 1023,7 48 46 0,0
21.08.2019 09:00:00 13,3 12,8 11,9 21,4 22,0 3 2 9 5 E 1024,0 40 6 0,0
21.08.2019 08:00:00 11,2 10,7 8,8 21,7 22,0 6 3 8 4 E 1024,0 25 25 0,0
21.08.2019 07:00:00 9,9 9,3 8,2 21,9 22,0 4 2 6 4 ENE 1024,1 26 0 0,0
21.08.2019 06:00:00 10,9 10,4 8,5 22,2 22,0 3 2 5 3 E 1024,1 39 0 0,0
21.08.2019 05:00:00 11,5 10,9 8,9 22,4 22,0 0 0 5 3 N 1024,2 39 0 0,0
21.08.2019 04:00:00 13,0 12,2 10,1 22,7 22,0 3 1 5 3 ESE 1024,1 20 0 0,0
21.08.2019 03:00:00 13,4 12,5 10,3 22,9 22,0 3 1 6 3 NE 1024,8 38 0 0,0
21.08.2019 02:00:00 14,0 12,9 11,1 23,2 22,1 4 2 5 3 E 1025,1 33 0 0,0
21.08.2019 01:00:00 13,8 12,9 10,8 23,4 22,0 3 2 5 3 ENE 1025,3 25 0 0,0
21.08.2019 00:00:00 14,5 13,4 11,7 23,6 22,1 0 0 3 2 N 1025,2 50 0 0,0
20.08.2019 23:00:00 15,7 13,9 12,6 23,8 22,0 0 0 4 2 N 1025,1 44 0 0,0
20.08.2019 22:00:00 16,8 13,5 13,9 23,9 22,1 0 0 3 2 N 1025,0 60 0 0,0
20.08.2019 21:00:00 19,5 14,5 17,1 23,9 22,1 0 0 4 2 N 1024,6 60 30 0,0
20.08.2019 20:00:00 21,9 12,2 22,5 23,9 22,1 3 2 10 5 E 1024,2 60 24 0,0
20.08.2019 19:00:00 22,6 12,8 24,0 23,8 22,1 6 3 10 5 NE 1024,3 60 0 0,0
20.08.2019 18:00:00 22,8 12,1 24,5 23,6 22,1 6 3 11 6 NE 1024,4 60 0 0,0
20.08.2019 17:00:00 23,0 13,7 26,1 23,3 22,1 5 3 12 6 ENE 1024,6 60 0 0,0
20.08.2019 16:00:00 23,4 14,4 24,1 23,1 22,1 7 4 15 8 NNE 1024,3 60 9 0,0
20.08.2019 15:00:00 22,7 14,0 26,8 22,7 22,1 3 2 10 6 WSW 1024,5 60 13 0,0
20.08.2019 14:00:00 21,9 14,0 23,5 22,4 22,1 5 3 13 7 NW 1024,3 60 45 0,0
20.08.2019 13:00:00 21,3 15,6 23,0 22,3 22,1 4 2 13 7 SSW 1024,6 60 44 0,0
20.08.2019 12:00:00 19,0 14,7 20,2 22,3 22,1 6 3 9 5 S 1024,7 60 36 0,0
20.08.2019 11:00:00 16,9 15,6 16,0 22,4 22,1 3 1 8 4 N 1024,1 35 3 0,0
20.08.2019 10:00:00 15,6 15,1 15,3 22,5 22,1 3 2 16 9 SE 1023,9 28 0 0,2
20.08.2019 09:00:00 15,4 14,6 15,1 22,7 22,1 7 4 11 6 E 1023,2 20 0 0,0
20.08.2019 08:00:00 15,3 14,2 15,0 22,9 22,1 0 0 9 5 N 1022,7 39 0 0,0
20.08.2019 07:00:00 15,4 14,8 15,0 23,0 22,1 6 3 9 5 ESE 1022,1 26 0 0,6
20.08.2019 06:00:00 15,3 14,7 15,2 23,2 22,1 6 3 16 8 NNE 1021,6 12 0 1,0
20.08.2019 05:00:00 15,7 14,7 15,3 23,3 22,1 11 6 20 11 NE 1022,0 10 0 2,0
20.08.2019 04:00:00 16,4 14,8 15,6 23,5 22,1 2 1 6 4 N 1021,6 2,5 0 1,4
20.08.2019 03:00:00 16,8 14,3 16,0 23,6 22,1 3 2 9 5 N 1021,1 60 0 0,0
20.08.2019 02:00:00 16,8 14,4 16,0 23,8 22,1 7 4 14 8 N 1021,3 60 0 0,0
20.08.2019 01:00:00 16,8 14,6 16,2 24,0 22,2 0 0 9 5 N 1021,6 57 0 0,0
20.08.2019 00:00:00 17,1 15,3 16,3 24,1 22,1 2 1 6 4 NNW 1022,1 60 0 0,0
19.08.2019 23:00:00 17,2 15,4 16,5 24,2 22,1 4 2 13 7 N 1022,0 60 0 0,0
19.08.2019 22:00:00 17,2 15,7 16,6 24,4 22,1 4 2 6 4 N 1021,7 55 0 0,0
19.08.2019 21:00:00 17,5 15,8 17,0 24,5 22,1 3 1 7 4 ENE 1021,3 46 0 0,0
19.08.2019 20:00:00 17,7 15,7 17,0 24,5 22,1 5 3 16 9 E 1021,2 58 0 0,0
19.08.2019 19:00:00 17,7 15,9 17,3 24,5 22,1 13 7 18 10 SSE 1021,3 41 0 0,8
19.08.2019 18:00:00 20,2 14,8 19,6 24,4 22,2 8 5 13 7 SE 1020,7 15 0 0,2
19.08.2019 17:00:00 21,2 13,1 22,1 24,2 22,1 5 3 15 8 E 1021,1 60 0 0,0
19.08.2019 16:00:00 21,4 13,6 22,6 24,1 22,2 10 6 15 8 NE 1021,1 60 0 0,0
19.08.2019 15:00:00 22,1 12,9 24,6 23,8 22,1 5 3 16 9 E 1021,2 60 10 0,0
19.08.2019 14:00:00 21,4 13,6 24,6 23,7 22,1 5 3 12 6 ESE 1021,2 60 1 0,0
19.08.2019 13:00:00 20,7 13,4 24,1 23,6 22,1 6 4 16 9 NE 1021,3 60 0 0,0
19.08.2019 12:00:00 20,6 13,5 23,5 23,5 22,1 9 5 18 10 E 1021,0 60 6 0,0
19.08.2019 11:00:00 20,3 14,4 22,4 23,5 22,1 7 4 14 8 E 1021,0 20 8 0,0
19.08.2019 10:00:00 19,2 14,0 19,8 23,6 22,1 4 2 13 7 ESE 1020,9 57 0 0,0
19.08.2019 09:00:00 18,1 14,8 18,4 23,7 22,1 2 1 4 2 S 1020,7 41 0 0,0
19.08.2019 08:00:00 17,7 15,5 16,8 23,8 22,1 3 2 5 3 S 1020,6 35 17 0,0

tt = temperature
td = dewpoint
tt 5cm = temperature 5cm
tt -20cm = temperature -20cm
tt -100cm = temperature -100cm
ff = wind speed
fx = gusts
dd = wind direction
ppp = reduced air pressure
vv = visibility
sd = sunshine duration
rr = precipitation

Next stations